Showing default

HAWK-11C, 62381

Orbit data source: Space-Track

HAWK-11C, 62381 is a payload satellite owned by HawkEye 360 (US) in LEO that was launched on Sat, 21 Dec 2024 UTC via an FALCON 9 launch vehicle from the Air Force Western Test Range (AFWTR). Payload-class satellites include a variety of spacecraft equipped with specific instruments for various scientific and technological missions. These include communications satellites like Starlink; space stations such as the ISS; scientific satellites like the Hubble; Earth observation satellites from companies like Planet Labs, Umbra, and HawkEye 360; GPS; miniature CubeSats for education and research; and military/defense satellites.

Loading next visibility...
Identifier
62381, 2024-247E
Orbit
LEO
Last TLE update
8 hours ago
Origin
Manufacturer
UTIAS-SFL
Mission
Operational Commercial Sigint
Bus & Motor
HAWK2G, Unknown motor
Mass
31 kg wet, 30 kg dry
Launch date (UTC)
2024-12-21 (5 months ago)
Launch vehicle
FALCON 9
Launch site
Air Force Western Test Range (AFWTR)
Object type
Payload
Rocket body
Debris
Shape & HBR
Box + 2 Pan, 1 m
Radar Cross Section
0.240 m², Medium (>0.1 m² and < 1m²)

Expand to show TLE details & history

TLE from 8 hours ago
0 HAWK-11C
1 62381U 24247E   25128.93575804  .00009790  00000-0  41994-3 0  9993
2 62381  44.9968 332.9359 0002875 278.2493  81.8062 15.23014600 21227
Epoch: 2025-05-08T22:27Z
Definitive object data (Epoch: 2025-05-08T22:27:29.494Z)
Latitude
-0.00004°
Longitude
129.06386°
Altitude
496.471 km
Speed
7.618 km/s
True Right ascension
22h 11m 44s
True Declination
0° 00' 00"
Sunlit
Object was in daylight at TLE epoch
Visualization TLE readout
Latitude
36.7729°
Longitude
-100.85094°
Altitude
500.59 km
Speed
7.618 km/s
Apparent Right ascension
05h 03m 55s
Apparent Declination
0° 09' 49"
Sunlit
Object is in daylight
Visualization observer readout
Local Sidereal Time
15:00:45
Azimuth
317.231° NNW
Elevation
-41.074°
Doppler factor
1
Orbital elements
Apogee altitude
500.337 km
Perigee altitude
496.383 km
Semi-major axis
6,876.497 km
Eccentricity
0.0002875
Inclination
44.9968°
RAAN
332.9359°
Arg. of periapsis
278.2493°
True anomaly
81.83881°
Mean anomaly
81.8062°
Eccentric anomaly
81.82251°
Mean motion
3.80621 °/min
BSTAR
0.00041994
Orbital period
94.58 mins
Loading maneuver chart data...
Loading SW <> Apogee altitude chart data...
Loading historical data...
Loading historical data...
Loading historical data...
Loading historical data...
Loading historical data...
Loading historical data...
Loading historical data...

HAWK-11C Visibility forecast

Observer location: undefined°, undefined°

Span
Click to sort rows by Start time (UTC) header in descending order
Start Az.
Max El. time (UTC)
Max El. Az.
Max El.
End time (UTC)
End Az.
5 mins2025-05-09 15:56:51.209Z189.443° SSW2025-05-09 15:59:51.209Z133.741° SE19.897°2025-05-09 16:01:51.209Z97.54° ESE
6 mins2025-05-09 17:35:51.209Z250.702° W2025-05-09 17:37:51.209Z267.164° W42.605°2025-05-09 17:41:51.209Z65.277° ENE
5 mins2025-05-09 19:15:51.209Z301.56° NW2025-05-09 19:17:51.209Z1.669° NNE31.713°2025-05-09 19:20:51.209Z62.766° ENE
6 mins2025-05-09 20:54:51.209Z305.038° NW2025-05-09 20:56:51.209Z351.262° N36.399°2025-05-09 21:00:51.209Z90.506° ESE
6 mins2025-05-09 22:33:51.209Z278.65° WNW2025-05-09 22:36:51.209Z185.948° SSW34.643°2025-05-09 22:39:51.209Z138.046° SSE
|